Location: ?? ????
(31.8890°N, 35.2167°E)
Time: 19:52:15
(UTC+00:00)

Daily predictions for brighter satellites

Satellite Brightness Start Highest point End
(mag) Time Altitude Azimuth Time Altitude Azimuth Time Altitude Azimuth
MetOp-A 4.2 17:07:12 10° SSE 17:12:30 68° ENE 17:17:49 10° N
ATLAS 3B R/B 4.0 17:09:18 10° SE 17:12:52 15° ESE 17:16:28 10° ENE
NOSS 3-2 (C) 3.7 17:07:56 10° SW 17:13:17 67° WNW 17:19:16 10° NNE
USA 234 3.9 17:07:42 10° SSE 17:14:05 55° SW 17:20:29 10° NW
Cosmos 1821 Rocket 4.1 17:12:32 10° N 17:18:42 83° W 17:24:46 10° S
Lacrosse 5 rocket 1.5 17:15:13 10° SSW 17:18:50 40° SE 17:22:18 10° NE
Cosmos 2151 Rocket 3.9 17:16:40 10° N 17:20:56 48° E 17:25:09 10° SSE
ERS-2 2.1 17:18:58 10° NNE 17:22:36 63° ESE 17:26:12 10° S
Cosmos 1300 Rocket 3.6 17:19:57 10° N 17:24:16 81° W 17:28:35 10° S
Resurs 01 Rocket 3.4 17:21:47 10° ESE 17:24:28 16° ENE 17:27:07 10° NNE
Cosmos 1674 Rocket 3.5 17:20:41 10° S 17:25:04 69° E 17:29:25 10° NNE
Cosmos 1452 Rocket 3.8 17:24:23 10° S 17:29:25 46° ESE 17:34:27 10° NNE
Okean 2 3.4 17:29:14 10° S 17:33:15 59° E 17:37:16 10° NNE
Cosmos 2360 Rocket 2.8 17:28:28 10° SSE 17:33:29 34° ESE 17:38:30 10° NE
SL-16 R/B 2.2 17:30:11 10° SSW 17:35:51 89° WNW 17:41:33 10° NNE
Cosmos 2322 Rocket 2.2 17:30:59 10° S 17:36:38 70° ESE 17:42:19 10° NNE
Cosmos 292 Rocket 3.8 17:36:48 10° SSW 17:41:39 87° WNW 17:46:30 10° NNE
Cosmos 407 Rocket 3.8 17:36:38 10° NNW 17:41:52 68° WSW 17:47:01 10° S
Cosmos 1400 Rocket 3.2 17:39:54 10° NNW 17:43:43 60° W 17:47:31 10° S
KM-V1 3.3 17:42:02 10° W 17:44:20 73° S 17:47:41 11° E
MOS 1 4.4 17:40:13 10° SSE 17:45:47 60° ENE 17:51:24 10° N
Meteor 2-10 4.0 17:41:00 10° N 17:46:03 64° E 17:51:11 10° SSE
Cosmos 1842 4.2 17:42:36 10° SSW 17:46:24 49° W 17:50:14 10° N
Cosmos 1238 4.4 17:43:59 10° S 17:47:42 84° W 17:50:51 10° N
Cosmos 1674 4.0 17:50:51 18° ESE 17:51:59 21° E 17:54:50 10° NE
Cosmos 1934 Rocket 4.1 17:46:37 10° N 17:52:45 82° W 17:58:57 10° S
Cosmos 2227 4.2 17:47:50 10° NNW 17:53:26 69° ENE 17:57:56 16° SSE
Yuri Rocket 4.3 17:49:25 10° SW 17:54:53 47° SSE 18:02:28 10° E
Cosmos 1190 Rocket 4.3 17:51:42 10° NNW 17:56:58 67° WSW 18:02:13 10° S
ASTRO E2 2.7 17:54:45 10° WSW 17:58:39 59° SSE 18:01:30 17° E
COSMOS 2428 4.3 17:58:38 15° ESE 17:58:57 15° E 18:02:08 10° ENE
Cosmos 1726 2.1 17:57:10 10° N 18:00:45 61° E 18:02:57 22° SSE
Cosmos 2237 4.2 17:57:42 10° SSW 18:03:23 85° ESE 18:09:06 10° NNE
IRS-1A Rocket 4.4 18:00:35 11° SSE 18:06:12 89° W 18:12:03 10° NNW
Meteor 2-20 4.4 18:02:00 10° S 18:08:07 89° WNW 18:14:13 10° N
Okean 1 Rocket 3.0 18:07:50 10° N 18:12:14 90° ENE 18:15:19 19° S
Cosmos 1455 Rocket 4.3 18:08:44 10° NNE 18:12:22 24° ENE 18:13:21 22° E
Cosmos 1470 2.8 18:09:19 10° N 18:13:17 81° W 18:15:51 21° S
Cosmos 1844 Rocket 4.2 18:09:02 10° N 18:13:25 22° ENE 18:15:49 17° E
Resurs 1-3 3.9 18:13:37 15° S 18:17:07 64° W 18:21:28 10° NNW
FALCON 9 DEB 3.3 18:14:56 10° SW 18:18:00 63° NW 18:21:06 10° NE
Cosmos 1727 Rocket 4.0 18:13:10 10° S 18:19:29 86° E 18:25:48 10° N
SPOT 3 Rocket 3.6 18:18:44 27° SE 18:21:30 61° ENE 18:26:36 10° N
IGS 5A 3.4 18:19:50 31° SSE 18:21:45 72° ENE 18:25:53 10° N
Ariane Rocket 3.4 18:18:08 15° S 18:22:22 62° WSW 18:27:26 10° NNW
OBJECT-B 3.6 18:20:32 10° SW 18:22:29 15° W 18:24:28 10° WNW
Cosmos 2263 Rocket 3.0 18:22:21 10° NNW 18:27:46 47° WSW 18:32:03 16° S
MetOp-B 4.3 18:25:34 30° SE 18:28:03 57° ENE 18:33:18 10° N
In-Cosmos 22 4.2 18:22:51 10° SSW 18:28:07 74° W 18:33:24 10° N
Cosmos 1605 Rocket 4.3 18:23:01 10° NNW 18:29:21 66° W 18:34:54 13° S
Cosmos 1461 4.2 18:29:45 10° N 18:33:08 24° NE 18:33:47 23° ENE
Delta 128 4.1 18:28:58 10° W 18:33:08 40° S 18:33:50 37° SSE
Cosmos 1025 Rocket 3.3 18:34:19 43° ESE 18:35:01 47° E 18:39:13 10° NNE
Cosmos 2333 4.1 18:32:13 13° S 18:37:20 70° ESE 18:43:02 10° NNE
ATLAS CENTAUR R/B 3.9 18:37:07 10° NNE 18:39:01 12° NE 18:40:08 12° ENE
Cosmos 1908 3.9 18:35:33 10° NNE 18:39:01 38° ENE 18:39:01 38° ENE
Cosmos 1315 Rocket 3.9 18:35:38 10° NNW 18:39:32 43° W 18:41:45 22° SSW
CZ-2C R/B 3.9 18:35:41 10° N 18:40:27 77° WNW 18:43:52 19° SSW
Lacrosse 5 1.8 18:35:48 10° NW 18:40:51 77° SW 18:42:32 42° SSE
Cosmos 1626 2.2 18:43:41 57° ENE 18:43:41 57° ENE 18:47:05 10° NNE
Cosmos 1110 Rocket 4.3 18:40:47 10° SSW 18:45:53 64° WNW 18:51:03 10° N
CARTOSAT-1 4.1 18:46:34 39° E 18:46:48 40° ENE 18:50:51 10° N
Landsat 7 4.0 18:45:17 34° S 18:47:17 68° WSW 18:52:01 10° NNW
Cosmos 1802 Rocket 4.4 18:41:39 10° N 18:47:39 45° E 18:49:22 37° ESE
Cosmos 2333 Rocket 2.1 18:46:55 24° S 18:50:25 74° ESE 18:56:09 10° NNE
Cosmos 2219 Rocket 2.1 18:51:20 37° S 18:53:33 66° ESE 18:59:10 10° NNE
USA 245 3.8 18:52:34 54° SE 18:53:38 76° ENE 18:59:08 10° N
Cosmos 1459 Rocket 3.9 18:47:45 10° N 18:53:45 64° E 18:55:36 44° SE
Cosmos 1975 Rocket 4.1 18:53:27 18° SW 18:56:16 42° W 19:00:26 10° N
Cosmos 1000 Rocket 4.5 18:53:02 25° S 18:56:51 81° W 19:03:00 10° N
Lacrosse 5 rocket 4.3 18:55:43 10° W 18:58:00 15° NW 19:00:15 10° N
Resurs 01 Rocket 2.9 18:58:45 24° SW 19:00:37 35° W 19:04:39 10° NNW
ATLAS 3B R/B 2.8 18:56:18 10° SW 19:02:45 70° WNW 19:09:24 10° NNE
Cosmos 1844 3.9 19:01:23 10° N 19:06:50 53° ENE 19:07:39 49° E
Cosmos 2237 Rocket 3.9 19:15:25 19° ENE 19:15:25 19° ENE 19:17:33 10° NE
SL-14 R/B 3.6 19:15:11 65° N 19:15:11 65° N 19:18:40 10° N
Cosmos 2360 Rocket 4.2 19:12:46 10° WSW 19:17:25 26° WNW 19:22:07 10° N
NOSS 0 Rocket 4.5 19:19:07 40° E 19:19:07 40° E 19:24:05 10° NE
Meteor 1-24 Rocket 3.8 19:19:11 51° E 19:19:11 51° E 19:24:05 10° NNE
Cosmos 1864 Rocket 4.4 19:14:46 10° N 19:20:53 62° E 19:21:35 58° ESE
Cosmos 2123 Rocket 4.0 19:20:06 46° SSW 19:22:06 84° W 19:28:27 10° N
Uosat 12 SS-18 rocket 4.2 19:21:58 67° WNW 19:22:09 68° WNW 19:26:44 10° NNE
Geosat 4.3 19:22:07 53° ENE 19:22:16 53° ENE 19:27:09 10° NNW
ERS-1 Rocket 2.8 19:24:16 77° E 19:24:19 77° ENE 19:29:22 10° N
BREEZE M DEB (TANK) 4.2 19:21:20 17° SW 19:24:39 85° NW 19:40:08 10° NE
Cosmos 1953 3.4 19:21:20 10° NNW 19:25:07 40° W 19:25:07 40° W
Spot 2 Rocket 3.6 19:25:42 61° SW 19:26:13 66° WSW 19:31:15 10° NNW
Cosmos 2061 Rocket 3.9 19:20:56 10° N 19:27:22 76° E 19:28:19 64° SE
USA 215 3.1 19:28:35 10° NE 19:35:07 72° SE 19:36:43 53° SSW
Cosmos 2233 Rocket 4.2 19:30:43 10° N 19:36:41 50° E 19:36:41 50° E
ARIANE 5 R/B 3.3 19:37:53 49° W 19:37:53 49° W 19:41:53 10° NNW
COSMOS 2428 3.2 19:40:33 36° SW 19:42:38 56° WNW 19:48:17 10° N
ATLAS 2A CENTAUR R/B 3.4 19:31:45 10° WSW 19:41:42 38° SW 19:41:42 38° SW
H-2A R/B 4.3 19:37:28 10° WSW 19:40:53 18° SW 19:40:53 18° SW
Cosmos 1300 4.5 19:45:25 10° N 19:47:26 30° N 19:47:26 30° N
Yuri Rocket 4.4 19:45:29 10° W 19:52:25 70° S 19:53:39 62° SE
Cosmos 2278 Rocket 3.7 19:48:58 10° N 19:53:25 25° ENE 19:53:25 25° ENE
Terra 2.4 19:58:05 54° NW 19:58:05 54° NW 20:01:53 10° NNW
Cosmos 1844 Rocket 3.5 19:52:07 10° NW 19:57:24 41° WSW 19:57:29 41° WSW
SPOT 5 3.8 19:59:52 44° W 19:59:52 44° W 20:04:21 10° NNW
Cosmos 2016 Rocket 4.4 19:54:49 10° NNW 20:00:41 50° W 20:01:26 48° WSW
ATLAS CENTAUR R/B 3.2 20:13:45 10° NW 20:16:16 33° NW 20:16:16 33° NW
Cosmos 1867 4.4 20:14:50 10° NNW 20:19:11 44° NNE 20:19:11 44° NNE
Cosmos 1980 4.1 20:24:27 59° NNW 20:24:27 59° NNW 20:29:18 10° NNE
Meteor 2-10 Rocket 4.4 20:22:02 10° NNW 20:25:31 45° NNW 20:25:31 45° NNW
SL-16 R/B 3.4 20:56:15 34° NE 20:56:15 34° NE 20:59:28 10° NNE
Cosmos 2237 Rocket 3.4 20:57:11 36° WNW 20:57:11 36° WNW 21:02:05 10° N
Tsikada Rocket 4.5 21:21:50 55° N 21:21:50 55° N 21:26:32 10° N
SJ 16-02 3.9 21:24:40 10° N 21:26:06 18° NNE 21:26:06 18° NNE
Cosmos 2278 Rocket 3.9 21:32:31 10° NW 21:35:15 25° WNW 21:35:15 25° WNW
USA 267 4.2 21:44:43 35° ENE 21:46:29 43° NE 21:52:33 10° NNW
Resurs 1-4 Rocket 4.4 22:00:20 10° NE 22:02:14 15° ENE 22:02:14 15° ENE
Cosmos 1943 4.3 22:09:49 38° NE 22:09:49 38° NE 22:13:20 10° NNE
Cosmos 1943 Rocket 3.2 22:02:51 10° NNW 22:06:33 41° N 22:06:33 41° N
Cosmos 2279 Rocket 4.4 22:11:24 10° N 22:16:31 58° NNE 22:16:31 58° NNE
CZ-2D R/B 3.9 22:17:50 10° NE 22:20:37 22° ENE 22:20:37 22° ENE
SL-16 R/B 4.4 22:38:06 15° WNW 22:38:24 15° WNW 22:41:34 10° NNW
Nadezhda 4 Rocket 4.2 22:46:14 67° NNE 22:46:14 67° NNE 22:51:31 10° N
Cosmos 2221 4.5 22:49:27 10° N 22:51:34 27° NNE 22:51:34 27° NNE
Cosmos 1898 Rocket 4.4 22:52:21 10° NNW 22:55:56 45° N 22:55:56 45° N
Cosmos 1937 Rocket 4.3 22:52:48 10° N 22:57:12 50° NE 22:57:12 50° NE
Cosmos 2369 Rocket 2.7 22:52:50 10° NNW 22:57:14 55° NNW 22:57:14 55° NNW
ATLAS 5 CENTAUR R/B 3.5 23:06:33 25° NNE 23:06:33 25° NNE 23:08:24 10° NNE
ARGOS Delta rocket 4.5 23:02:38 10° NNE 23:07:13 63° NNE 23:07:13 63° NNE
Cosmos 2263 4.4 23:06:23 10° NNW 23:11:13 65° N 23:11:13 65° N
SL-16 R/B 2.9 23:14:47 51° ESE 23:15:55 59° ENE 23:21:59 10° N
Helios 1B rocket 4.0 23:15:31 10° NNE 23:17:51 33° NNE 23:17:51 33° NNE
SeaSat 1 4.4 23:18:22 10° ENE 23:21:45 19° ESE 23:21:45 19° ESE
Cosmos 1627 Rocket 4.4 23:22:56 78° SE 23:23:14 80° E 23:29:36 10° N
CZ-4C R/B 3.7 23:26:11 20° E 23:26:11 20° E 23:29:26 10° ENE
Cosmos 1092 Rocket 3.8 23:26:26 78° WNW 23:26:26 78° WNW 23:32:28 10° N
USA 267 4.2 23:32:01 31° WNW 23:32:01 31° WNW 23:35:35 10° NW
Meteor 2-19 Rocket 4.4 23:32:22 68° WNW 23:32:22 68° WNW 23:38:25 10° N
Cosmos 372 Rocket 4.2 23:28:00 10° N 23:33:13 66° ENE 23:33:17 66° ENE
Cosmos 2208 Rocket 4.4 23:36:02 57° NW 23:36:02 57° NW 23:40:55 10° N
Cosmos 1428 Rocket 4.3 23:40:16 72° WSW 23:40:42 76° W 23:47:00 10° N
Tianhe-1 4.3 23:45:21 10° E 23:45:21 10° E 23:45:24 10° E
Lacrosse 4 Rocket 3.1 23:39:16 10° N 23:42:48 28° ENE 23:43:58 24° E
Resurs 1-4 Rocket 2.7 23:38:40 10° N 23:43:19 44° WNW 23:43:19 44° WNW
Meteor 2-3 Rocket 3.6 23:49:11 75° SSE 23:49:39 84° E 23:55:15 10° N
NPP 4.1 23:49:21 10° N 23:54:27 47° WNW 23:54:27 47° WNW
Okean 3 Rocket 4.3 23:55:12 46° ESE 23:55:23 46° E 23:59:35 10° NNE
